Voltar ao catálogo

COSMOS 252 DEB

AtivoLEO
NORAD 18431·DEBRIS·🇷🇺 Russia

Lançado Nov 1, 1968 de Baikonur Cosmodrome

Loading…

Próximas Passagens (próximas 24 horas)

TLE

AtualizadoSource: Space-Track

Época: Sep 14, 2026, 08:54 UTC

1 18431U 68097EJ  26257.37108020 -.00000210  00000-0 -29704-4 0  9991
2 18431  62.3496 210.4396 0849307 176.2792 184.5108 13.20498723460128

Acompanhe COSMOS 252 DEB em tempo real com AllMySat

Download on the App Store